Regional Weather Roundup
Issued by NWS Melbourne, FL

Current Version | Previous Version | Text Only | Print | Product List | Glossary On
Versions: 1 2 3 4 5 6 7 8 9 10 11 12 13 14 15 16 17 18 19 20 21 22 23 24 25 26 27
000
ASUS42 KMLB 250104
RWRMLB
HOURLY WEATHER ROUNDUP AROUND FLORIDA
NATIONAL WEATHER SERVICE OFFICE MELBOURNE FL
900 PM EDT SUN SEP 24 2017

CITY           SKY/WX    TMP DP  RH WIND       PRES   REMARKS
MELBOURNE      CLEAR     83  73  72 N9        29.88R
FORT PIERCE    CLEAR     81  74  79 NE5       29.87R
ORLANDO INTL   PTCLDY    80  73  79 NE9       29.90R
DAYTONA BEACH  PTCLDY    80  74  81 N17G23    29.90R
VERO BEACH     PTCLDY    80  73  79 NE6       29.88R
$$
...ELSEWHERE ACROSS CENTRAL FLORIDA...

CITY           SKY/WX    TMP DP  RH WIND       PRES   REMARKS
PATRICK AFB    CLEAR     81  72  73 N13       29.88R
KSC            CLEAR     80  74  82 N3        29.88R
CAPE CANAVERAL CLEAR     80  72  74 NE6       29.87R
TITUSVILLE     PTCLDY    84  72  65 NE6       29.89R
ORLANDO EXEC   PTCLDY    81  73  76 NE7       29.91R
LEESBURG       CLEAR     80  73  79 NE8       29.92R
THE VILLAGES     N/A     81  72  74 MISG      29.81R
SANFORD        PTCLDY    80  74  81 NE8       29.91R
DELAND         CLEAR     79  73  83 N7        29.90R
NEW SMYRNA BCH PTCLDY    81  75  83 NE16      29.89S
WINTER HAVEN   PTCLDY    81  68  64 E6        29.91R
KISSIMMEE      MOCLDY    82  73  74 NE7       29.91R
OKEECHOBEE     CLEAR     77  72  83 NE3       29.88R
TAMPA          MOCLDY    80  74  81 N5        29.89R
$$
...NORTHERN FLORIDA...

CITY           SKY/WX    TMP DP  RH WIND       PRES   REMARKS
PALM COAST     MOCLDY    78  42  26 NE8       29.91R
ST AUGUSTINE   MOCLDY    79  73  82 N12       29.92S
OCALA          CLEAR     80  71  74 NE5       29.92R
GAINESVILLE    PTCLDY    79  70  74 NE8       29.94R
JACKSONVILLE   PTCLDY    76  71  85 NE10      29.93R
TALLAHASSEE    PTCLDY    80  70  71 NE5       29.92R
$$
...ALONG THE SOUTHEAST COAST TO THE KEYS...

CITY           SKY/WX    TMP DP  RH WIND       PRES   REMARKS
STUART         PTCLDY    82  75  78 NE8       29.88S
WEST PALM BCH  PTCLDY    83  73  72 NE8       29.87R
MIAMI          MOCLDY    85  76  74 NE5       29.88R
KEY WEST       CLEAR     85  75  72 S5        29.87R
$$
...MARINE REPORTS...

STATION/POSITION TIME  TEMP    WIND        PRES    WAVE   SWELL
                       AIR SEA DIR/SP/G            HT/PER HT/PER
                 (UTC) (F)     (DEG/KT/KT) (MB)    (FT/S) (FT/S)
ST AUGUSTINE FP  0000   80 82   30/ 18/ 20 1012.8F
20NM E CAPE CANA 0050   83 84   10/ 12/ 14 1012.6R  10/12  10/12
120 E NEW SMYRNA 0050           10/ 16/ 19 1010.4R  11/15  10/15
TRIDENT PIER     0030   80 83   10/  5/  7 1013.3R
4NM E PORT CANAV 0051      83                N/A     5/13   3/13
6NM NE FPR INLET 0030      83                N/A     7/12   3/12
SETTLEMENT PT GB 0000   83      10/ 13/ 15 1011.0R
$$




USA.gov is the U.S. government's official web portal to all federal, state and local government web resources and services.